Time,TemperatureF,DewpointF,PressureIn,WindDirection,WindDirectionDegrees,WindSpeedMPH,WindSpeedGustMPH,Humidity,HourlyPrecipIn,Conditions,Clouds,dailyrainin,SoftwareType,DateUTC
2013-02-01 00:00:00,37.2,16.7,30.15,WSW,250,0.0,4.0,43,0.00,,,0.00,meteohub,2013-02-01 05:00:00,
2013-02-01 00:01:00,37.2,16.7,30.15,WSW,250,0.0,3.0,43,0.00,,,0.00,meteohub,2013-02-01 05:01:00,
2013-02-01 00:06:00,37.2,17.2,30.15,West,265,0.0,5.0,44,0.00,,,0.00,meteohub,2013-02-01 05:06:00,
2013-02-01 00:11:00,37.2,17.2,30.15,North,350,0.0,6.0,44,0.00,,,0.00,meteohub,2013-02-01 05:11:00,
2013-02-01 00:16:00,37.0,17.1,30.15,WSW,255,3.0,6.0,44,0.00,,,0.00,meteohub,2013-02-01 05:16:00,
2013-02-01 00:21:00,37.0,17.1,30.15,WSW,249,3.0,6.0,44,0.00,,,0.00,meteohub,2013-02-01 05:21:00,
2013-02-01 00:26:00,37.0,17.1,30.15,North,353,3.0,6.0,44,0.00,,,0.00,meteohub,2013-02-01 05:26:00,
2013-02-01 00:31:00,36.9,17.4,30.12,SW,220,4.0,7.0,45,0.00,,,0.00,meteohub,2013-02-01 05:31:00,
2013-02-01 00:36:00,37.0,17.6,30.12,SW,234,3.0,7.0,45,0.00,,,0.00,meteohub,2013-02-01 05:36:00,
2013-02-01 00:41:00,37.0,17.6,30.12,WNW,287,4.0,7.0,45,0.00,,,0.00,meteohub,2013-02-01 05:41:00,
2013-02-01 00:46:00,36.9,17.4,30.12,NW,308,0.0,4.0,45,0.00,,,0.00,meteohub,2013-02-01 05:46:00,
2013-02-01 00:51:00,36.7,17.4,30.12,West,265,0.0,4.0,45,0.00,,,0.00,meteohub,2013-02-01 05:51:00,
2013-02-01 00:56:00,36.5,17.2,30.12,West,275,0.0,4.0,45,0.00,,,0.00,meteohub,2013-02-01 05:56:00,
2013-02-01 01:01:00,36.3,17.6,30.12,WNW,301,0.0,4.0,46,0.00,,,0.00,meteohub,2013-02-01 06:01:00,
2013-02-01 01:06:00,36.5,17.6,30.12,West,271,0.0,4.0,46,0.00,,,0.00,meteohub,2013-02-01 06:06:00,
2013-02-01 01:11:00,36.3,17.6,30.12,NNW,338,0.0,3.0,46,0.00,,,0.00,meteohub,2013-02-01 06:11:00,
2013-02-01 01:16:00,36.3,17.6,30.12,NW,322,0.0,3.0,46,0.00,,,0.00,meteohub,2013-02-01 06:16:00,
2013-02-01 01:21:00,36.3,18.0,30.12,West,270,0.0,3.0,47,0.00,,,0.00,meteohub,2013-02-01 06:21:00,
2013-02-01 01:26:00,36.1,17.8,30.12,WNW,291,0.0,3.0,47,0.00,,,0.00,meteohub,2013-02-01 06:26:00,
2013-02-01 01:31:00,36.1,17.8,30.12,WSW,253,0.0,3.0,47,0.00,,,0.00,meteohub,2013-02-01 06:31:00,
2013-02-01 01:36:00,36.0,18.1,30.12,West,277,0.0,4.0,48,0.00,,,0.00,meteohub,2013-02-01 06:36:00,
2013-02-01 01:41:00,36.0,18.1,30.12,WSW,244,3.0,4.0,48,0.00,,,0.00,meteohub,2013-02-01 06:41:00,
2013-02-01 01:46:00,36.0,18.1,30.12,NW,313,0.0,4.0,48,0.00,,,0.00,meteohub,2013-02-01 06:46:00,
2013-02-01 01:51:00,35.8,18.5,30.12,West,274,2.0,4.0,49,0.00,,,0.00,meteohub,2013-02-01 06:51:00,
2013-02-01 01:56:00,35.8,18.0,30.12,West,267,3.0,3.0,48,0.00,,,0.00,meteohub,2013-02-01 06:56:00,
2013-02-01 02:01:00,36.0,18.7,30.12,NNW,332,0.0,4.0,49,0.00,,,0.00,meteohub,2013-02-01 07:01:00,
2013-02-01 02:06:00,36.1,18.9,30.12,North,353,3.0,4.0,49,0.00,,,0.00,meteohub,2013-02-01 07:06:00,
2013-02-01 02:11:00,36.1,18.9,30.12,NW,307,4.0,6.0,49,0.00,,,0.00,meteohub,2013-02-01 07:11:00,
2013-02-01 02:18:00,36.3,19.0,30.09,WSW,248,3.0,6.0,49,0.00,,,0.00,meteohub,2013-02-01 07:18:00,
2013-02-01 02:23:00,36.3,19.0,30.09,North,0,2.0,6.0,49,0.00,,,0.00,meteohub,2013-02-01 07:23:00,
2013-02-01 02:28:00,36.3,19.0,30.09,SW,226,3.0,7.0,49,0.00,,,0.00,meteohub,2013-02-01 07:28:00,
2013-02-01 02:33:00,36.5,19.2,30.09,WSW,249,5.0,8.0,49,0.00,,,0.00,meteohub,2013-02-01 07:33:00,
2013-02-01 02:38:00,36.7,19.4,30.09,WSW,258,2.0,8.0,49,0.00,,,0.00,meteohub,2013-02-01 07:38:00,
2013-02-01 02:43:00,36.9,19.4,30.09,SW,218,0.0,8.0,49,0.00,,,0.00,meteohub,2013-02-01 07:43:00,
2013-02-01 02:48:00,37.0,19.6,30.09,North,0,3.0,8.0,49,0.00,,,0.00,meteohub,2013-02-01 07:48:00,
2013-02-01 02:53:00,37.0,19.6,30.09,WSW,245,8.0,9.0,49,0.00,,,0.00,meteohub,2013-02-01 07:53:00,
2013-02-01 02:58:00,37.0,19.6,30.06,West,267,8.0,9.0,49,0.00,,,0.00,meteohub,2013-02-01 07:58:00,
2013-02-01 03:03:00,37.0,19.6,30.06,West,276,4.0,9.0,49,0.00,,,0.00,meteohub,2013-02-01 08:03:00,
2013-02-01 03:08:00,37.2,19.4,30.06,NW,316,11.0,11.0,48,0.00,,,0.00,meteohub,2013-02-01 08:08:00,
2013-02-01 03:13:00,37.2,19.4,30.09,NNW,327,4.0,11.0,48,0.00,,,0.00,meteohub,2013-02-01 08:13:00,
2013-02-01 03:18:00,37.4,19.6,30.09,SSE,155,3.0,11.0,48,0.00,,,0.00,meteohub,2013-02-01 08:18:00,
2013-02-01 03:23:00,37.4,19.0,30.09,West,261,3.0,11.0,47,0.00,,,0.00,meteohub,2013-02-01 08:23:00,
2013-02-01 03:29:00,37.4,19.0,30.09,NNW,346,4.0,8.0,47,0.00,,,0.00,meteohub,2013-02-01 08:29:00,
2013-02-01 03:34:00,37.4,19.0,30.06,WSW,239,5.0,8.0,47,0.00,,,0.00,meteohub,2013-02-01 08:34:00,
2013-02-01 03:39:00,37.4,19.0,30.06,West,259,4.0,10.0,47,0.00,,,0.00,meteohub,2013-02-01 08:39:00,
2013-02-01 03:44:00,37.6,19.2,30.06,NNW,339,9.0,10.0,47,0.00,,,0.00,meteohub,2013-02-01 08:44:00,
2013-02-01 03:49:00,37.6,19.6,30.06,North,353,4.0,10.0,48,0.00,,,0.00,meteohub,2013-02-01 08:49:00,
2013-02-01 03:54:00,37.6,19.6,30.06,SSW,211,3.0,9.0,48,0.00,,,0.00,meteohub,2013-02-01 08:54:00,
2013-02-01 03:59:00,37.6,19.2,30.06,SSW,209,4.0,10.0,47,0.00,,,0.00,meteohub,2013-02-01 08:59:00,
2013-02-01 04:04:00,37.6,19.2,30.06,South,191,2.0,10.0,47,0.00,,,0.00,meteohub,2013-02-01 09:04:00,
2013-02-01 04:09:00,37.6,19.2,30.06,NNW,329,4.0,10.0,47,0.00,,,0.00,meteohub,2013-02-01 09:09:00,
2013-02-01 04:14:00,37.6,19.2,30.06,WSW,245,4.0,10.0,47,0.00,,,0.00,meteohub,2013-02-01 09:14:00,
2013-02-01 04:19:00,37.4,19.6,30.06,NNW,342,2.0,10.0,48,0.00,,,0.00,meteohub,2013-02-01 09:19:00,
2013-02-01 04:24:00,37.6,19.6,30.06,WSW,251,8.0,10.0,48,0.00,,,0.00,meteohub,2013-02-01 09:24:00,
2013-02-01 04:29:00,37.6,19.6,30.06,NE,36,3.0,9.0,48,0.00,,,0.00,meteohub,2013-02-01 09:29:00,
2013-02-01 04:34:00,37.6,19.6,30.06,North,353,3.0,8.0,48,0.00,,,0.00,meteohub,2013-02-01 09:34:00,
2013-02-01 04:39:00,37.6,19.2,30.06,NNE,16,4.0,10.0,47,0.00,,,0.00,meteohub,2013-02-01 09:39:00,
2013-02-01 04:44:00,37.6,19.6,30.06,West,268,9.0,10.0,48,0.00,,,0.00,meteohub,2013-02-01 09:44:00,
2013-02-01 04:49:00,37.4,19.0,30.06,WNW,297,2.0,10.0,47,0.00,,,0.00,meteohub,2013-02-01 09:49:00,
2013-02-01 04:54:00,37.4,19.0,30.06,WSW,256,4.0,9.0,47,0.00,,,0.00,meteohub,2013-02-01 09:54:00,
2013-02-01 04:59:00,37.4,19.6,30.03,WNW,294,5.0,9.0,48,0.00,,,0.00,meteohub,2013-02-01 09:59:00,
2013-02-01 05:04:00,37.4,19.6,30.03,NNW,333,3.0,8.0,48,0.00,,,0.00,meteohub,2013-02-01 10:04:00,
2013-02-01 05:23:00,37.4,19.6,30.06,NNE,24,4.0,9.0,48,0.00,,,0.00,meteohub,2013-02-01 10:23:00,
2013-02-01 05:28:00,37.4,19.6,30.06,West,281,4.0,9.0,48,0.00,,,0.00,meteohub,2013-02-01 10:28:00,
2013-02-01 05:33:00,37.4,19.6,30.06,WSW,254,4.0,11.0,48,0.00,,,0.00,meteohub,2013-02-01 10:33:00,
2013-02-01 05:38:00,37.4,19.9,30.06,WNW,296,5.0,11.0,49,0.00,,,0.00,meteohub,2013-02-01 10:38:00,
2013-02-01 05:43:00,37.4,19.9,30.06,WNW,284,4.0,11.0,49,0.00,,,0.00,meteohub,2013-02-01 10:43:00,
2013-02-01 05:48:00,37.2,19.8,30.06,North,0,3.0,8.0,49,0.00,,,0.00,meteohub,2013-02-01 10:48:00,
2013-02-01 05:53:00,37.2,19.8,30.06,SE,137,0.0,8.0,49,0.00,,,0.00,meteohub,2013-02-01 10:53:00,
2013-02-01 05:58:00,37.4,19.9,30.09,NNE,18,0.0,8.0,49,0.00,,,0.00,meteohub,2013-02-01 10:58:00,
2013-02-01 06:03:00,37.4,19.9,30.09,West,270,3.0,8.0,49,0.00,,,0.00,meteohub,2013-02-01 11:03:00,
2013-02-01 06:08:00,37.4,19.9,30.09,NNW,344,5.0,8.0,49,0.00,,,0.00,meteohub,2013-02-01 11:08:00,
2013-02-01 06:13:00,37.2,20.3,30.09,West,260,4.0,8.0,50,0.00,,,0.00,meteohub,2013-02-01 11:13:00,
2013-02-01 06:18:00,37.2,20.3,30.09,NNW,343,3.0,6.0,50,0.00,,,0.00,meteohub,2013-02-01 11:18:00,
2013-02-01 06:23:00,37.2,20.3,30.09,West,262,5.0,9.0,50,0.00,,,0.00,meteohub,2013-02-01 11:23:00,
2013-02-01 06:28:00,37.0,20.1,30.09,North,1,4.0,9.0,50,0.00,,,0.00,meteohub,2013-02-01 11:28:00,
2013-02-01 06:36:00,37.0,20.1,30.09,North,1,4.0,10.0,50,0.00,,,0.00,meteohub,2013-02-01 11:36:00,
2013-02-01 06:41:00,37.0,20.1,30.09,SSW,192,0.0,10.0,50,0.00,,,0.00,meteohub,2013-02-01 11:41:00,
2013-02-01 06:46:00,37.0,20.1,30.09,WSW,248,3.0,5.0,50,0.00,,,0.00,meteohub,2013-02-01 11:46:00,
2013-02-01 06:51:00,37.2,20.3,30.09,NW,316,6.0,6.0,50,0.00,,,0.00,meteohub,2013-02-01 11:51:00,
2013-02-01 06:56:00,37.4,19.9,30.09,NNE,22,5.0,9.0,49,0.00,,,0.00,meteohub,2013-02-01 11:56:00,
2013-02-01 07:01:00,37.4,19.0,30.12,NNW,333,5.0,9.0,47,0.00,,,0.00,meteohub,2013-02-01 12:01:00,
2013-02-01 07:06:00,37.6,18.7,30.12,NNE,31,4.0,9.0,46,0.00,,,0.00,meteohub,2013-02-01 12:06:00,
2013-02-01 07:11:00,37.4,18.0,30.12,North,1,4.0,9.0,45,0.00,,,0.00,meteohub,2013-02-01 12:11:00,
2013-02-01 07:16:00,37.4,18.0,30.12,NNE,18,10.0,10.0,45,0.00,,,0.00,meteohub,2013-02-01 12:16:00,
2013-02-01 07:22:00,37.4,16.3,30.12,North,6,4.0,11.0,42,0.00,,,0.00,meteohub,2013-02-01 12:22:00,
2013-02-01 07:27:00,37.4,15.8,30.12,NE,47,18.0,18.0,41,0.00,,,0.00,meteohub,2013-02-01 12:27:00,
2013-02-01 07:32:00,37.0,14.4,30.15,NNW,334,8.0,18.0,39,0.00,,,0.00,meteohub,2013-02-01 12:32:00,
2013-02-01 07:37:00,36.9,11.8,30.15,North,2,8.0,18.0,35,0.00,,,0.00,meteohub,2013-02-01 12:37:00,
2013-02-01 07:42:00,36.7,10.2,30.15,WNW,291,5.0,18.0,33,0.00,,,0.00,meteohub,2013-02-01 12:42:00,
2013-02-01 07:47:00,36.5,9.5,30.18,North,357,15.0,15.0,32,0.00,,,0.00,meteohub,2013-02-01 12:47:00,
2013-02-01 07:52:00,36.3,8.6,30.18,North,357,9.0,15.0,31,0.00,,,0.00,meteohub,2013-02-01 12:52:00,
2013-02-01 07:57:00,36.5,8.8,30.18,NNE,17,5.0,15.0,31,0.00,,,0.00,meteohub,2013-02-01 12:57:00,
2013-02-01 08:02:00,41.5,11.7,30.18,North,357,3.0,15.0,29,0.00,,,0.00,meteohub,2013-02-01 13:02:00,
2013-02-01 08:07:00,46.6,14.4,30.18,North,0,6.0,13.0,27,0.00,,,0.00,meteohub,2013-02-01 13:07:00,
2013-02-01 08:12:00,49.5,16.0,30.18,WNW,291,5.0,13.0,26,0.00,,,0.00,meteohub,2013-02-01 13:12:00,
2013-02-01 08:17:00,49.8,14.5,30.21,NNE,21,11.0,13.0,24,0.00,,,0.00,meteohub,2013-02-01 13:17:00,
2013-02-01 08:22:00,51.1,15.4,30.21,North,357,4.0,12.0,24,0.00,,,0.00,meteohub,2013-02-01 13:22:00,
2013-02-01 08:27:00,51.1,15.4,30.21,North,0,8.0,11.0,24,0.00,,,0.00,meteohub,2013-02-01 13:27:00,
2013-02-01 08:32:00,53.8,16.9,30.21,NNE,28,4.0,11.0,23,0.00,,,0.00,meteohub,2013-02-01 13:32:00,
2013-02-01 08:37:00,52.3,13.5,30.21,NNE,29,6.0,12.0,21,0.00,,,0.00,meteohub,2013-02-01 13:37:00,
2013-02-01 08:42:00,52.9,14.0,30.21,North,2,3.0,12.0,21,0.00,,,0.00,meteohub,2013-02-01 13:42:00,
2013-02-01 08:47:00,48.7,8.2,30.21,NNE,24,3.0,11.0,19,0.00,,,0.00,meteohub,2013-02-01 13:47:00,
2013-02-01 08:52:00,45.3,6.6,30.21,NNE,20,6.0,11.0,20,0.00,,,0.00,meteohub,2013-02-01 13:52:00,
2013-02-01 08:57:00,43.2,7.9,30.21,NW,316,2.0,11.0,23,0.00,,,0.00,meteohub,2013-02-01 13:57:00,
2013-02-01 09:03:00,42.1,7.0,30.24,North,9,8.0,8.0,23,0.00,,,0.00,meteohub,2013-02-01 14:03:00,
2013-02-01 09:08:00,41.0,6.1,30.24,North,357,8.0,8.0,23,0.00,,,0.00,meteohub,2013-02-01 14:08:00,
2013-02-01 09:13:00,40.3,5.4,30.24,NNW,338,5.0,10.0,23,0.00,,,0.00,meteohub,2013-02-01 14:13:00,
2013-02-01 09:18:00,39.9,5.2,30.24,North,9,13.0,16.0,23,0.00,,,0.00,meteohub,2013-02-01 14:18:00,
2013-02-01 09:23:00,39.4,4.6,30.24,North,353,8.0,16.0,23,0.00,,,0.00,meteohub,2013-02-01 14:23:00,
2013-02-01 09:28:00,39.2,4.5,30.24,North,353,6.0,16.0,23,0.00,,,0.00,meteohub,2013-02-01 14:28:00,
2013-02-01 09:33:00,38.8,5.2,30.24,North,8,3.0,13.0,24,0.00,,,0.00,meteohub,2013-02-01 14:33:00,
2013-02-01 09:38:00,38.8,5.2,30.24,NNE,33,8.0,13.0,24,0.00,,,0.00,meteohub,2013-02-01 14:38:00,
2013-02-01 09:43:00,38.7,5.0,30.24,North,0,5.0,13.0,24,0.00,,,0.00,meteohub,2013-02-01 14:43:00,
2013-02-01 09:48:00,38.7,5.0,30.24,North,353,11.0,14.0,24,0.00,,,0.00,meteohub,2013-02-01 14:48:00,
2013-02-01 09:53:00,38.5,4.8,30.24,NE,34,7.0,14.0,24,0.00,,,0.00,meteohub,2013-02-01 14:53:00,
2013-02-01 09:58:00,38.5,4.8,30.24,NNW,346,11.0,13.0,24,0.00,,,0.00,meteohub,2013-02-01 14:58:00,
2013-02-01 10:03:00,38.5,4.8,30.27,North,4,10.0,13.0,24,0.00,,,0.00,meteohub,2013-02-01 15:03:00,
2013-02-01 10:08:00,38.3,4.6,30.27,NNE,17,8.0,13.0,24,0.00,,,0.00,meteohub,2013-02-01 15:08:00,
2013-02-01 10:13:00,38.3,4.6,30.27,NNE,12,4.0,13.0,24,0.00,,,0.00,meteohub,2013-02-01 15:13:00,
2013-02-01 10:18:00,38.5,4.8,30.27,NNW,330,6.0,13.0,24,0.00,,,0.00,meteohub,2013-02-01 15:18:00,
2013-02-01 10:23:00,38.5,4.8,30.27,North,5,2.0,13.0,24,0.00,,,0.00,meteohub,2013-02-01 15:23:00,
2013-02-01 10:28:00,38.5,4.8,30.27,NE,43,6.0,9.0,24,0.00,,,0.00,meteohub,2013-02-01 15:28:00,
2013-02-01 10:33:00,38.5,4.8,30.27,NE,40,4.0,13.0,24,0.00,,,0.00,meteohub,2013-02-01 15:33:00,
2013-02-01 10:38:00,38.5,4.8,30.27,NE,36,0.0,15.0,24,0.00,,,0.00,meteohub,2013-02-01 15:38:00,
2013-02-01 10:43:00,38.5,4.8,30.30,NE,36,11.0,15.0,24,0.00,,,0.00,meteohub,2013-02-01 15:43:00,
2013-02-01 10:48:00,38.5,4.8,30.30,NNE,33,4.0,15.0,24,0.00,,,0.00,meteohub,2013-02-01 15:48:00,
2013-02-01 10:53:00,38.5,4.8,30.30,North,10,8.0,13.0,24,0.00,,,0.00,meteohub,2013-02-01 15:53:00,
2013-02-01 10:58:00,38.7,5.0,30.30,NNE,15,8.0,14.0,24,0.00,,,0.00,meteohub,2013-02-01 15:58:00,
2013-02-01 11:03:00,38.7,5.0,30.30,NE,45,6.0,14.0,24,0.00,,,0.00,meteohub,2013-02-01 16:03:00,
2013-02-01 11:08:00,38.7,5.0,30.30,NNE,25,6.0,14.0,24,0.00,,,0.00,meteohub,2013-02-01 16:08:00,
2013-02-01 11:13:00,38.8,5.2,30.30,NNE,24,0.0,13.0,24,0.00,,,0.00,meteohub,2013-02-01 16:13:00,
2013-02-01 11:18:00,38.8,5.2,30.30,NE,39,8.0,13.0,24,0.00,,,0.00,meteohub,2013-02-01 16:18:00,
2013-02-01 11:23:00,38.7,5.0,30.30,ENE,66,13.0,13.0,24,0.00,,,0.00,meteohub,2013-02-01 16:23:00,
2013-02-01 11:28:00,38.8,5.2,30.30,East,89,4.0,19.0,24,0.00,,,0.00,meteohub,2013-02-01 16:28:00,
2013-02-01 11:33:00,39.2,4.5,30.30,NNE,17,6.0,19.0,23,0.00,,,0.00,meteohub,2013-02-01 16:33:00,
2013-02-01 11:38:00,39.0,5.2,30.30,NE,42,6.0,19.0,24,0.00,,,0.00,meteohub,2013-02-01 16:38:00,
2013-02-01 11:43:00,39.2,4.5,30.30,NNE,19,13.0,13.0,23,0.00,,,0.00,meteohub,2013-02-01 16:43:00,
2013-02-01 11:48:00,39.2,4.5,30.30,NNE,23,4.0,13.0,23,0.00,,,0.00,meteohub,2013-02-01 16:48:00,
2013-02-01 11:53:00,39.4,4.6,30.30,West,269,4.0,17.0,23,0.00,,,0.00,meteohub,2013-02-01 16:53:00,
2013-02-01 11:58:00,39.6,4.8,30.30,NE,42,0.0,17.0,23,0.00,,,0.00,meteohub,2013-02-01 16:58:00,
2013-02-01 12:03:00,39.9,5.2,30.30,NE,38,4.0,17.0,23,0.00,,,0.00,meteohub,2013-02-01 17:03:00,
2013-02-01 12:08:00,39.9,5.2,30.30,North,0,6.0,10.0,23,0.00,,,0.00,meteohub,2013-02-01 17:08:00,
2013-02-01 12:13:00,40.1,5.2,30.30,NNW,344,5.0,9.0,23,0.00,,,0.00,meteohub,2013-02-01 17:13:00,
2013-02-01 12:18:00,40.1,5.2,30.30,North,357,4.0,9.0,23,0.00,,,0.00,meteohub,2013-02-01 17:18:00,
2013-02-01 12:23:00,39.9,5.2,30.30,NNW,339,2.0,11.0,23,0.00,,,0.00,meteohub,2013-02-01 17:23:00,
2013-02-01 12:29:00,40.1,5.2,30.30,NNW,341,8.0,11.0,23,0.00,,,0.00,meteohub,2013-02-01 17:29:00,
2013-02-01 12:34:00,40.3,5.4,30.30,NNW,334,4.0,11.0,23,0.00,,,0.00,meteohub,2013-02-01 17:34:00,
2013-02-01 12:39:00,40.5,5.5,30.30,WNW,286,6.0,10.0,23,0.00,,,0.00,meteohub,2013-02-01 17:39:00,
2013-02-01 12:44:00,40.5,5.5,30.30,NNE,20,6.0,10.0,23,0.00,,,0.00,meteohub,2013-02-01 17:44:00,
2013-02-01 12:49:00,40.6,5.7,30.30,NNE,22,6.0,10.0,23,0.00,,,0.00,meteohub,2013-02-01 17:49:00,
2013-02-01 12:54:00,40.6,5.7,30.30,WNW,289,6.0,11.0,23,0.00,,,0.00,meteohub,2013-02-01 17:54:00,
2013-02-01 12:59:00,40.6,5.7,30.27,NNW,328,4.0,11.0,23,0.00,,,0.00,meteohub,2013-02-01 17:59:00,
2013-02-01 13:04:00,40.6,5.7,30.27,WNW,300,6.0,8.0,23,0.00,,,0.00,meteohub,2013-02-01 18:04:00,
2013-02-01 13:09:00,40.8,5.9,30.27,North,8,6.0,8.0,23,0.00,,,0.00,meteohub,2013-02-01 18:09:00,
2013-02-01 13:14:00,41.0,6.1,30.30,NE,55,3.0,8.0,23,0.00,,,0.00,meteohub,2013-02-01 18:14:00,
2013-02-01 13:19:00,41.0,6.1,30.30,North,3,5.0,7.0,23,0.00,,,0.00,meteohub,2013-02-01 18:19:00,
2013-02-01 13:24:00,41.2,6.3,30.30,West,266,3.0,11.0,23,0.00,,,0.00,meteohub,2013-02-01 18:24:00,
2013-02-01 13:29:00,41.2,6.3,30.30,NE,37,3.0,11.0,23,0.00,,,0.00,meteohub,2013-02-01 18:29:00,
2013-02-01 13:34:00,41.0,6.1,30.30,North,3,0.0,11.0,23,0.00,,,0.00,meteohub,2013-02-01 18:34:00,
2013-02-01 13:39:00,41.0,6.1,30.30,NW,315,4.0,11.0,23,0.00,,,0.00,meteohub,2013-02-01 18:39:00,
2013-02-01 13:44:00,41.2,6.3,30.30,NW,314,5.0,11.0,23,0.00,,,0.00,meteohub,2013-02-01 18:44:00,
2013-02-01 13:49:00,41.0,6.1,30.30,NE,56,0.0,11.0,23,0.00,,,0.00,meteohub,2013-02-01 18:49:00,
2013-02-01 13:54:00,41.2,6.3,30.30,NE,44,0.0,8.0,23,0.00,,,0.00,meteohub,2013-02-01 18:54:00,
2013-02-01 13:59:00,41.0,6.1,30.30,North,353,0.0,8.0,23,0.00,,,0.00,meteohub,2013-02-01 18:59:00,
2013-02-01 14:04:00,41.2,6.3,30.30,West,265,0.0,8.0,23,0.00,,,0.00,meteohub,2013-02-01 19:04:00,
2013-02-01 14:10:00,41.2,6.3,30.30,SSW,210,4.0,8.0,23,0.00,,,0.00,meteohub,2013-02-01 19:10:00,
2013-02-01 14:15:00,41.2,6.3,30.27,North,357,0.0,5.0,23,0.00,,,0.00,meteohub,2013-02-01 19:15:00,
2013-02-01 14:20:00,41.2,6.3,30.27,NNW,344,0.0,8.0,23,0.00,,,0.00,meteohub,2013-02-01 19:20:00,
2013-02-01 14:25:00,41.2,6.3,30.27,NNE,12,0.0,8.0,23,0.00,,,0.00,meteohub,2013-02-01 19:25:00,
2013-02-01 14:30:00,41.0,6.1,30.27,NW,315,4.0,8.0,23,0.00,,,0.00,meteohub,2013-02-01 19:30:00,
2013-02-01 14:35:00,41.2,6.3,30.27,NNE,31,3.0,8.0,23,0.00,,,0.00,meteohub,2013-02-01 19:35:00,
2013-02-01 14:40:00,41.0,6.1,30.27,West,271,0.0,6.0,23,0.00,,,0.00,meteohub,2013-02-01 19:40:00,
2013-02-01 14:45:00,41.0,6.1,30.27,SSW,201,0.0,6.0,23,0.00,,,0.00,meteohub,2013-02-01 19:45:00,
2013-02-01 14:50:00,41.0,6.1,30.27,NNW,333,0.0,5.0,23,0.00,,,0.00,meteohub,2013-02-01 19:50:00,
2013-02-01 14:55:00,41.0,6.1,30.27,NE,34,0.0,5.0,23,0.00,,,0.00,meteohub,2013-02-01 19:55:00,
2013-02-01 15:00:00,41.2,6.3,30.27,NNW,335,0.0,8.0,23,0.00,,,0.00,meteohub,2013-02-01 20:00:00,
2013-02-01 15:05:00,40.8,5.9,30.27,WSW,242,0.0,8.0,23,0.00,,,0.00,meteohub,2013-02-01 20:05:00,
2013-02-01 15:10:00,41.0,6.1,30.27,NNW,339,0.0,8.0,23,0.00,,,0.00,meteohub,2013-02-01 20:10:00,
2013-02-01 15:15:00,41.0,6.1,30.30,North,357,4.0,6.0,23,0.00,,,0.00,meteohub,2013-02-01 20:15:00,
2013-02-01 15:20:00,41.0,6.1,30.30,NNE,21,4.0,6.0,23,0.00,,,0.00,meteohub,2013-02-01 20:20:00,
2013-02-01 15:25:00,41.0,6.1,30.30,ENE,58,0.0,6.0,23,0.00,,,0.00,meteohub,2013-02-01 20:25:00,
2013-02-01 15:30:00,40.6,5.7,30.30,NNW,333,0.0,6.0,23,0.00,,,0.00,meteohub,2013-02-01 20:30:00,
2013-02-01 15:35:00,41.0,6.1,30.30,NW,307,6.0,6.0,23,0.00,,,0.00,meteohub,2013-02-01 20:35:00,
2013-02-01 15:40:00,41.0,6.1,30.30,NW,313,0.0,6.0,23,0.00,,,0.00,meteohub,2013-02-01 20:40:00,
2013-02-01 15:45:00,41.0,6.1,30.30,NNE,14,0.0,6.0,23,0.00,,,0.00,meteohub,2013-02-01 20:45:00,
2013-02-01 15:51:00,41.0,6.1,30.30,North,2,2.0,6.0,23,0.00,,,0.00,meteohub,2013-02-01 20:51:00,
2013-02-01 15:56:00,41.0,6.1,30.30,NW,316,0.0,5.0,23,0.00,,,0.00,meteohub,2013-02-01 20:56:00,
2013-02-01 16:01:00,40.8,5.9,30.27,North,353,0.0,5.0,23,0.00,,,0.00,meteohub,2013-02-01 21:01:00,
2013-02-01 16:06:00,40.8,5.9,30.27,West,271,0.0,6.0,23,0.00,,,0.00,meteohub,2013-02-01 21:06:00,
2013-02-01 16:11:00,40.8,5.9,30.27,SW,229,0.0,6.0,23,0.00,,,0.00,meteohub,2013-02-01 21:11:00,
2013-02-01 16:16:00,40.8,5.9,30.30,West,269,0.0,6.0,23,0.00,,,0.00,meteohub,2013-02-01 21:16:00,
2013-02-01 16:21:00,40.6,5.7,30.30,North,4,0.0,4.0,23,0.00,,,0.00,meteohub,2013-02-01 21:21:00,
2013-02-01 16:26:00,40.6,5.7,30.30,NW,326,0.0,5.0,23,0.00,,,0.00,meteohub,2013-02-01 21:26:00,
2013-02-01 16:31:00,40.6,5.7,30.30,North,11,0.0,6.0,23,0.00,,,0.00,meteohub,2013-02-01 21:31:00,
2013-02-01 16:36:00,40.5,5.5,30.30,South,183,0.0,7.0,23,0.00,,,0.00,meteohub,2013-02-01 21:36:00,
2013-02-01 16:41:00,40.5,5.5,30.30,North,9,0.0,8.0,23,0.00,,,0.00,meteohub,2013-02-01 21:41:00,
2013-02-01 16:46:00,40.5,5.5,30.30,West,269,4.0,8.0,23,0.00,,,0.00,meteohub,2013-02-01 21:46:00,
2013-02-01 16:51:00,40.5,5.5,30.30,North,353,0.0,7.0,23,0.00,,,0.00,meteohub,2013-02-01 21:51:00,
2013-02-01 16:56:00,40.3,5.4,30.30,NNW,344,0.0,7.0,23,0.00,,,0.00,meteohub,2013-02-01 21:56:00,
2013-02-01 17:01:00,40.3,5.4,30.30,WNW,301,0.0,7.0,23,0.00,,,0.00,meteohub,2013-02-01 22:01:00,
2013-02-01 17:06:00,40.1,5.2,30.30,NNE,19,0.0,5.0,23,0.00,,,0.00,meteohub,2013-02-01 22:06:00,
2013-02-01 17:11:00,39.9,5.2,30.30,WSW,258,0.0,5.0,23,0.00,,,0.00,meteohub,2013-02-01 22:11:00,
2013-02-01 17:16:00,39.7,5.0,30.30,NNE,18,0.0,4.0,23,0.00,,,0.00,meteohub,2013-02-01 22:16:00,
2013-02-01 17:21:00,39.7,5.0,30.30,NNW,339,0.0,4.0,23,0.00,,,0.00,meteohub,2013-02-01 22:21:00,
2013-02-01 17:26:00,39.4,4.6,30.30,NW,320,0.0,2.0,23,0.00,,,0.00,meteohub,2013-02-01 22:26:00,
2013-02-01 17:31:00,39.2,4.5,30.30,North,11,0.0,0.0,23,0.00,,,0.00,meteohub,2013-02-01 22:31:00,
2013-02-01 17:36:00,39.2,4.5,30.30,WNW,294,0.0,3.0,23,0.00,,,0.00,meteohub,2013-02-01 22:36:00,
2013-02-01 17:41:00,39.0,5.2,30.30,NNE,17,3.0,4.0,24,0.00,,,0.00,meteohub,2013-02-01 22:41:00,
2013-02-01 17:46:00,38.8,5.2,30.30,North,4,0.0,4.0,24,0.00,,,0.00,meteohub,2013-02-01 22:46:00,
2013-02-01 17:51:00,38.7,5.0,30.30,North,9,0.0,4.0,24,0.00,,,0.00,meteohub,2013-02-01 22:51:00,
2013-02-01 17:56:00,38.5,4.8,30.30,NW,317,0.0,4.0,24,0.00,,,0.00,meteohub,2013-02-01 22:56:00,
2013-02-01 18:02:00,38.3,4.6,30.32,NNW,335,0.0,0.0,24,0.00,,,0.00,meteohub,2013-02-01 23:02:00,
2013-02-01 18:07:00,38.1,4.5,30.32,North,353,0.0,0.0,24,0.00,,,0.00,meteohub,2013-02-01 23:07:00,
2013-02-01 18:12:00,37.9,4.3,30.32,NNW,345,0.0,0.0,24,0.00,,,0.00,meteohub,2013-02-01 23:12:00,
2013-02-01 18:17:00,37.6,4.1,30.32,North,0,0.0,0.0,24,0.00,,,0.00,meteohub,2013-02-01 23:17:00,
2013-02-01 18:22:00,37.4,3.9,30.32,North,0,0.0,0.0,24,0.00,,,0.00,meteohub,2013-02-01 23:22:00,
2013-02-01 18:27:00,37.2,3.7,30.32,North,353,0.0,0.0,24,0.00,,,0.00,meteohub,2013-02-01 23:27:00,
2013-02-01 18:33:00,37.0,3.6,30.32,ENE,63,0.0,0.0,24,0.00,,,0.00,meteohub,2013-02-01 23:33:00,
2013-02-01 18:38:00,36.9,3.4,30.32,ENE,63,0.0,0.0,24,0.00,,,0.00,meteohub,2013-02-01 23:38:00,
2013-02-01 18:43:00,36.7,3.2,30.32,ENE,63,0.0,0.0,24,0.00,,,0.00,meteohub,2013-02-01 23:43:00,
2013-02-01 18:48:00,36.7,3.2,30.32,ENE,63,0.0,0.0,24,0.00,,,0.00,meteohub,2013-02-01 23:48:00,
2013-02-01 18:53:00,36.3,3.0,30.32,ENE,63,0.0,0.0,24,0.00,,,0.00,meteohub,2013-02-01 23:53:00,
2013-02-01 18:58:00,36.1,2.8,30.32,ENE,63,0.0,0.0,24,0.00,,,0.00,meteohub,2013-02-01 23:58:00,
2013-02-01 19:03:00,36.0,2.7,30.32,ENE,63,0.0,0.0,24,0.00,,,0.00,meteohub,2013-02-02 00:03:00,
2013-02-01 19:08:00,35.8,2.5,30.32,ENE,63,0.0,0.0,24,0.00,,,0.00,meteohub,2013-02-02 00:08:00,
2013-02-01 19:13:00,35.2,2.8,30.32,ENE,63,0.0,0.0,25,0.00,,,0.00,meteohub,2013-02-02 00:13:00,
2013-02-01 19:18:00,35.1,4.5,30.32,ENE,63,0.0,0.0,27,0.00,,,0.00,meteohub,2013-02-02 00:18:00,
2013-02-01 19:23:00,35.1,4.5,30.32,ENE,63,0.0,0.0,27,0.00,,,0.00,meteohub,2013-02-02 00:23:00,
2013-02-01 19:28:00,34.9,4.3,30.32,ENE,63,0.0,0.0,27,0.00,,,0.00,meteohub,2013-02-02 00:28:00,
2013-02-01 19:33:00,34.5,3.9,30.35,ENE,63,0.0,0.0,27,0.00,,,0.00,meteohub,2013-02-02 00:33:00,
2013-02-01 19:38:00,34.5,6.3,30.35,ENE,63,0.0,0.0,30,0.00,,,0.00,meteohub,2013-02-02 00:38:00,
2013-02-01 19:43:00,34.5,6.3,30.35,ENE,63,0.0,0.0,30,0.00,,,0.00,meteohub,2013-02-02 00:43:00,
2013-02-01 19:48:00,34.5,6.3,30.35,SW,226,0.0,0.0,30,0.00,,,0.00,meteohub,2013-02-02 00:48:00,
2013-02-01 19:53:00,34.5,6.3,30.35,SW,216,0.0,0.0,30,0.00,,,0.00,meteohub,2013-02-02 00:53:00,
2013-02-01 19:58:00,34.3,6.1,30.35,NW,306,0.0,0.0,30,0.00,,,0.00,meteohub,2013-02-02 00:58:00,
2013-02-01 20:03:00,34.2,5.9,30.35,NW,306,0.0,0.0,30,0.00,,,0.00,meteohub,2013-02-02 01:03:00,
2013-02-01 20:08:00,33.8,5.7,30.35,WNW,282,0.0,0.0,30,0.00,,,0.00,meteohub,2013-02-02 01:08:00,
2013-02-01 20:13:00,33.6,5.5,30.35,WNW,282,0.0,0.0,30,0.00,,,0.00,meteohub,2013-02-02 01:13:00,
2013-02-01 20:18:00,33.3,5.9,30.35,West,281,0.0,0.0,31,0.00,,,0.00,meteohub,2013-02-02 01:18:00,
2013-02-01 20:23:00,32.9,5.5,30.35,WNW,282,0.0,0.0,31,0.00,,,0.00,meteohub,2013-02-02 01:23:00,
2013-02-01 20:28:00,32.7,5.4,30.35,NNW,338,0.0,0.0,31,0.00,,,0.00,meteohub,2013-02-02 01:28:00,
2013-02-01 20:33:00,32.7,5.4,30.35,NNW,338,0.0,0.0,31,0.00,,,0.00,meteohub,2013-02-02 01:33:00,
2013-02-01 20:38:00,32.7,5.4,30.35,NNW,338,0.0,0.0,31,0.00,,,0.00,meteohub,2013-02-02 01:38:00,
2013-02-01 20:43:00,32.7,5.4,30.35,NNW,338,0.0,0.0,31,0.00,,,0.00,meteohub,2013-02-02 01:43:00,
2013-02-01 20:58:00,32.2,5.5,30.35,NNW,338,0.0,0.0,32,0.00,,,0.00,meteohub,2013-02-02 01:58:00,
2013-02-01 21:03:00,32.0,6.1,30.38,NNW,338,0.0,0.0,33,0.00,,,0.00,meteohub,2013-02-02 02:03:00,
2013-02-01 21:08:00,31.8,5.9,30.38,NNW,338,0.0,0.0,33,0.00,,,0.00,meteohub,2013-02-02 02:08:00,
2013-02-01 21:13:00,31.5,6.3,30.38,NNW,338,0.0,0.0,34,0.00,,,0.00,meteohub,2013-02-02 02:13:00,
2013-02-01 21:18:00,31.5,6.3,30.35,NNW,338,0.0,0.0,34,0.00,,,0.00,meteohub,2013-02-02 02:18:00,
2013-02-01 21:23:00,31.5,7.0,30.35,NNW,338,0.0,0.0,35,0.00,,,0.00,meteohub,2013-02-02 02:23:00,
2013-02-01 21:28:00,31.3,7.3,30.35,NNW,338,0.0,0.0,36,0.00,,,0.00,meteohub,2013-02-02 02:28:00,
2013-02-01 21:33:00,31.3,7.3,30.38,NNW,338,0.0,0.0,36,0.00,,,0.00,meteohub,2013-02-02 02:33:00,
2013-02-01 21:38:00,31.5,7.5,30.38,NNW,338,0.0,0.0,36,0.00,,,0.00,meteohub,2013-02-02 02:38:00,
2013-02-01 21:43:00,31.3,7.3,30.38,NNW,338,0.0,0.0,36,0.00,,,0.00,meteohub,2013-02-02 02:43:00,
2013-02-01 21:48:00,31.1,7.3,30.38,NNW,338,0.0,0.0,36,0.00,,,0.00,meteohub,2013-02-02 02:48:00,
2013-02-01 21:53:00,31.1,7.3,30.38,NNW,338,0.0,0.0,36,0.00,,,0.00,meteohub,2013-02-02 02:53:00,
2013-02-01 21:58:00,30.9,7.7,30.38,NNW,338,0.0,0.0,37,0.00,,,0.00,meteohub,2013-02-02 02:58:00,
2013-02-01 22:03:00,30.7,7.5,30.38,NNW,338,0.0,0.0,37,0.00,,,0.00,meteohub,2013-02-02 03:03:00,
2013-02-01 22:17:00,30.6,7.9,30.38,NNW,338,0.0,0.0,38,0.00,,,0.00,meteohub,2013-02-02 03:17:00,
2013-02-01 22:22:00,30.2,8.2,30.38,NNW,338,0.0,0.0,39,0.00,,,0.00,meteohub,2013-02-02 03:22:00,
2013-02-01 22:27:00,29.8,7.9,30.38,NNW,338,0.0,0.0,39,0.00,,,0.00,meteohub,2013-02-02 03:27:00,
2013-02-01 22:32:00,29.8,7.9,30.38,NNW,338,0.0,0.0,39,0.00,,,0.00,meteohub,2013-02-02 03:32:00,
2013-02-01 22:38:00,29.7,8.2,30.38,NNW,338,0.0,0.0,40,0.00,,,0.00,meteohub,2013-02-02 03:38:00,
2013-02-01 22:43:00,29.7,8.2,30.38,NNW,338,0.0,0.0,40,0.00,,,0.00,meteohub,2013-02-02 03:43:00,
2013-02-01 22:48:00,29.8,9.0,30.38,NNW,338,0.0,0.0,41,0.00,,,0.00,meteohub,2013-02-02 03:48:00,
2013-02-01 22:53:00,29.7,8.8,30.38,NNW,338,0.0,0.0,41,0.00,,,0.00,meteohub,2013-02-02 03:53:00,
2013-02-01 22:58:00,29.7,8.8,30.38,NNW,338,0.0,0.0,41,0.00,,,0.00,meteohub,2013-02-02 03:58:00,
2013-02-01 23:03:00,29.5,8.6,30.38,NNW,338,0.0,0.0,41,0.00,,,0.00,meteohub,2013-02-02 04:03:00,
2013-02-01 23:08:00,29.5,8.6,30.38,NNW,338,0.0,0.0,41,0.00,,,0.00,meteohub,2013-02-02 04:08:00,
2013-02-01 23:13:00,29.3,8.6,30.38,NNW,338,0.0,0.0,41,0.00,,,0.00,meteohub,2013-02-02 04:13:00,
2013-02-01 23:18:00,29.1,8.4,30.38,NNW,338,0.0,0.0,41,0.00,,,0.00,meteohub,2013-02-02 04:18:00,
2013-02-01 23:24:00,28.9,8.2,30.38,NNW,338,0.0,0.0,41,0.00,,,0.00,meteohub,2013-02-02 04:24:00,
2013-02-01 23:29:00,28.9,8.8,30.38,NNW,338,0.0,0.0,42,0.00,,,0.00,meteohub,2013-02-02 04:29:00,
2013-02-01 23:34:00,28.9,8.8,30.38,NNW,338,0.0,0.0,42,0.00,,,0.00,meteohub,2013-02-02 04:34:00,
2013-02-01 23:39:00,28.9,8.8,30.38,NNW,338,0.0,0.0,42,0.00,,,0.00,meteohub,2013-02-02 04:39:00,
2013-02-01 23:44:00,28.6,8.4,30.38,NNW,338,0.0,0.0,42,0.00,,,0.00,meteohub,2013-02-02 04:44:00,
2013-02-01 23:49:00,28.6,9.0,30.38,NNW,338,0.0,0.0,43,0.00,,,0.00,meteohub,2013-02-02 04:49:00,
2013-02-01 23:54:00,28.6,9.0,30.38,NNW,338,0.0,0.0,43,0.00,,,0.00,meteohub,2013-02-02 04:54:00,
2013-02-01 23:59:00,28.4,9.3,30.41,NNW,338,0.0,0.0,44,0.00,,,0.00,meteohub,2013-02-02 04:59:00,